This demonstration page uses our WeatherBlox Daily Observations layout. Learn more.

Hourly Observations for April 18, 2018

Temp ( °F °C ) Dew Point ( °F °C ) Humidity (%) Winds ( mph kmh ) Pressure ( in mb ) Visibility ( mi km ) Precip ( " mm )
12:15 am 00:15 Cloudy 46 7.5 41 5.2 86 86 NW 9 15 29.8 1009 7 11.26538 0.02 0.508
12:35 am 00:35 Cloudy with Light Rain 45 7 43 5.9 93 93 N 7 11 29.83 1010 7 11.26538 0.04 1.016
12:55 am 00:55 Cloudy with Light Rain 44 6.7 42 5.8 94 94 N 9 15 29.83 1010 7 11.26538 0.04 1.016
1:15 am 01:15 Cloudy with Light Rain 43 6.3 42 5.6 95 95 NE 14 22 29.8 1009 7 11.26538 0.02 0.508
1:35 am 01:35 Cloudy 43 6 42 5.5 97 97 NNW 6 9 29.83 1010 10 16.0934 0.03 0.762
1:55 am 01:55 Cloudy with Rain 43 5.9 42 5.8 99 99 NW 10 17 29.83 1010 5 8.0467 0.03 0.762
2:15 am 02:15 Cloudy with Light Rain 41 5.1 41 4.8 98 98 NW 17 28 29.83 1010 5 8.0467 0.01 0.254
2:35 am 02:35 Cloudy with Rain 40 4.5 40 4.2 98 98 NW 18 30 29.85 1011 7 11.26538 0.02 0.508
2:55 am 02:55 Cloudy with Light Rain 39 3.7 38 3.1 96 96 NNW 18 30 29.88 1012 7 11.26538 0.02 0.508
3:15 am 03:15 Cloudy with Light Drizzle 38 3.4 37 2.9 97 97 NNW 15 24 29.88 1012 7 11.26538 0 0
3:35 am 03:35 Cloudy with Light Drizzle 37 3 37 2.6 97 97 NNW 15 24 29.91 1013 7 11.26538 0 0
3:55 am 03:55 Cloudy 37 3 37 2.6 97 97 NW 17 28 29.91 1013 10 16.0934 0 0
4:15 am 04:15 Cloudy 37 3 36 2.3 95 95 NW 21 33 29.91 1013 10 16.0934 0 0
4:35 am 04:35 Cloudy 37 3 37 2.5 97 97 NW 17 28 29.94 1014 10 16.0934 0 0
4:55 am 04:55 Cloudy 38 3.1 37 2.5 96 96 NW 14 22 29.94 1014 10 16.0934 0 0
5:15 am 05:15 Cloudy 38 3.5 37 2.5 93 93 NW 15 24 29.94 1014 10 16.0934 0 0
5:35 am 05:35 Cloudy 38 3.5 35 1.9 89 89 NW 25 41 29.97 1015 10 16.0934 0 0
5:55 am 05:55 Mostly Cloudy 37 2.6 33 0.7 87 87 NW 20 31 29.97 1015 10 16.0934 0 0
6:15 am 06:15 Partly Cloudy 36 2.1 32 0.2 87 87 NW 22 35 30.03 1017 10 16.0934 0 0
6:35 am 06:35 Mostly Cloudy 35 1.7 33 0.5 92 92 NW 16 26 30.03 1017 10 16.0934 0 0
6:55 am 06:55 Cloudy 36 2.2 33 0.5 89 89 NW 23 37 30 1016 10 16.0934 0 0
7:15 am 07:15 Cloudy 36 2.3 32 0.1 86 86 NW 20 31 30.06 1018 10 16.0934 0 0
7:35 am 07:35 Cloudy 37 2.6 33 0.3 85 85 NW 21 33 30.03 1017 10 16.0934 0 0
7:55 am 07:55 Mostly Cloudy 36 2.2 32 0 86 86 NW 22 35 30.06 1018 10 16.0934 0 0
8:15 am 08:15 Partly Cloudy 36 2.2 32 -0.1 85 85 NW 20 31 30.09 1019 10 16.0934 0 0
8:35 am 08:35 Sunny 37 2.6 32 0 83 83 NNW 21 33 30.09 1019 10 16.0934 0 0
8:55 am 08:55 Partly Cloudy 38 3.1 32 0 80 80 NW 23 37 30.06 1018 10 16.0934 0 0
9:15 am 09:15 Mostly Cloudy 38 3.6 33 0.5 80 80 NNW 23 37 30.06 1018 10 16.0934 0 0
9:35 am 09:35 Cloudy 38 3.5 32 0 78 78 NNW 25 41 30.09 1019 10 16.0934 0 0
9:55 am 09:55 Cloudy 38 3.4 32 0 79 79 NNW 23 37 30.09 1019 10 16.0934 0 0
10:15 am 10:15 Cloudy 38 3.2 32 0.2 81 81 N 22 35 30.15 1021 10 16.0934 0 0
10:35 am 10:35 Mostly Cloudy 38 3.1 32 0 80 80 NNW 22 35 30.15 1021 10 16.0934 0 0
10:55 am 10:55 Mostly Cloudy 38 3.6 31 -0.3 76 76 NNW 24 39 30.15 1021 10 16.0934 0 0
11:15 am 11:15 Mostly Cloudy 39 4 31 -0.5 73 73 N 22 35 30.15 1021 10 16.0934 0 0
11:35 am 11:35 Mostly Cloudy 40 4.2 30 -1.1 69 69 NNW 24 39 30.18 1022 10 16.0934 0 0
11:55 am 11:55 Mostly Cloudy 41 4.8 31 -0.4 69 69 NNW 23 37 30.18 1022 10 16.0934 0 0
12:15 pm 12:15 Partly Cloudy 43 6 32 -0.2 65 65 NNW 23 37 30.18 1022 10 16.0934 0 0
12:35 pm 12:35 Mostly Cloudy 43 6.2 32 0 65 65 NNW 20 31 30.18 1022 10 16.0934 0 0
12:55 pm 12:55 Mostly Cloudy 45 7 32 -0.1 61 61 NNW 21 33 30.18 1022 10 16.0934 0 0
1:15 pm 13:15 Mostly Cloudy 46 7.7 32 0.1 59 59 NNW 23 37 30.15 1021 10 16.0934 0 0
1:35 pm 13:35 Mostly Cloudy 46 7.8 32 -0.1 58 58 NNW 21 33 30.15 1021 10 16.0934 0 0
1:55 pm 13:55 Cloudy 47 8.6 32 0 55 55 NNW 17 28 30.15 1021 10 16.0934 0 0
2:15 pm 14:15 Mostly Cloudy 48 8.9 32 0.1 54 54 NNW 20 31 30.15 1021 10 16.0934 0 0
2:35 pm 14:35 Cloudy 48 8.9 32 0 54 54 N 23 37 30.15 1021 10 16.0934 0 0
2:55 pm 14:55 Cloudy 49 9.5 32 0 52 52 NNW 20 31 30.15 1021 10 16.0934 0 0
3:15 pm 15:15 Cloudy 50 9.9 33 0.6 53 53 N 20 31 30.15 1021 10 16.0934 0 0
3:35 pm 15:35 Cloudy 50 9.9 32 0.2 51 51 NNW 24 39 30.15 1021 10 16.0934 0 0
3:55 pm 15:55 Cloudy 51 10.6 33 0.8 51 51 NNW 23 37 30.12 1020 10 16.0934 0 0
4:15 pm 16:15 Cloudy 50 9.8 33 0.4 52 52 NNW 21 33 30.15 1021 10 16.0934 0 0
4:35 pm 16:35 Cloudy 50 9.8 33 0.4 52 52 N 17 28 30.18 1022 10 16.0934 0 0
4:55 pm 16:55 Cloudy 50 10 33 0.5 52 52 N 22 35 30.18 1022 10 16.0934 0 0
5:15 pm 17:15 Mostly Cloudy 50 10 33 0.6 52 52 N 17 28 30.18 1022 10 16.0934 0 0
5:35 pm 17:35 Mostly Cloudy 50 10.1 33 0.7 52 52 N 20 31 30.18 1022 10 16.0934 0 0
5:55 pm 17:55 Partly Cloudy 49 9.5 33 0.7 55 55 N 16 26 30.18 1022 10 16.0934 0 0
6:15 pm 18:15 Sunny 49 9.3 34 0.9 56 56 NNE 16 26 30.21 1023 10 16.0934 0 0
6:35 pm 18:35 Sunny 48 9 33 0.6 56 56 N 17 28 30.21 1023 10 16.0934 0 0
6:55 pm 18:55 Sunny 47 8.6 33 0.5 57 57 N 17 28 30.21 1023 10 16.0934 0 0
7:15 pm 19:15 Sunny 47 8.4 33 0.8 59 59 N 16 26 30.21 1023 10 16.0934 0 0
7:35 pm 19:35 Sunny 46 8 33 0.7 60 60 N 14 22 30.21 1023 10 16.0934 0 0
7:55 pm 19:55 Sunny 44 6.9 33 0.7 65 65 N 12 19 30.24 1024 10 16.0934 0 0
8:15 pm 20:15 Sunny 42 5.6 33 0.4 70 70 N 8 13 30.24 1024 10 16.0934 0 0
8:35 pm 20:35 Clear 39 3.9 32 -0.1 75 75 N 7 11 30.27 1025 10 16.0934 0 0
8:55 pm 20:55 Clear 38 3.6 32 0 78 78 N 5 7 30.3 1026 10 16.0934 0 0
9:15 pm 21:15 Clear 37 3 32 -0.1 80 80 Calm 30.3 1026 10 16.0934 0 0
9:35 pm 21:35 Clear 36 2.2 31 -0.4 83 83 N 3 6 30.3 1026 10 16.0934 0 0
9:55 pm 21:55 Clear 36 2.2 31 -0.5 83 83 Calm 30.3 1026 10 16.0934 0 0
10:15 pm 22:15 Clear 33 0.7 30 -1 89 89 Calm 30.36 1028 10 16.0934 0 0
10:35 pm 22:35 Clear 33 0.7 31 -0.7 90 90 NNW 3 6 30.36 1028 10 16.0934 0 0
10:55 pm 22:55 Clear 33 0.8 31 -0.7 90 90 NNW 5 7 30.36 1028 10 16.0934 0 0
11:15 pm 23:15 Clear 34 1.2 30 -0.9 86 86 NNW 5 7 30.36 1028 10 16.0934 0 0
11:35 pm 23:35 Clear 34 1.1 31 -0.6 89 89 NNW 5 7 30.39 1029 10 16.0934 0 0
11:55 pm 23:55 Clear 35 1.6 32 -0.2 88 88 NNW 6 9 30.39 1029 10 16.0934 0 0

Powered by AerisWeather